User: anonymous   Login
Location: Unspecified
(0.0000°N, 0.0000°E)
Time: 23:17:38
(UTC+00:00)
Language:

FENGYUN 1C DEB - Orbit

View from above orbital plane
View from above orbital plane
View from above satellite
View from above satellite

Ground track
Ground track

The orbit data is extracted from the following two-line orbital elements,

1 33701U 99025DGN 21340.36666003  .00000678  00000-0  50611-3 0  9996
2 33701  98.6025   7.3170 0150869 307.1817  66.6509 13.92776477700248
Epoch (UTC): 06 December 2021 08:47:59
Eccentricity: 0.0150869
inclination: 98.6025°
perigee height: 809 km
apogee height: 1029 km
right ascension of ascending node: 7.3170°
argument of perigee: 307.1817°
revolutions per day: 13.92776477
mean anomaly at epoch: 66.6509°
orbit number at epoch: 70024

The dashed part of the orbit path shows where the satellite is in the earth's shadow,  

DLR